TimeCDT,TemperatureF,Dew PointF,Humidity,Sea Level PressureIn,VisibilityMPH,Wind Direction,Wind SpeedMPH,Gust SpeedMPH,PrecipitationIn,Events,Conditions,WindDirDegrees,DateUTC
12:53 AM,66.0,55.0,68,29.80,10.0,South,19.6,28.8,N/A,,Scattered Clouds,190,2013-03-18 05:53:00
1:53 AM,66.0,55.9,70,29.80,10.0,South,13.8,-,N/A,,Overcast,190,2013-03-18 06:53:00
2:53 AM,64.9,55.0,70,29.78,10.0,South,19.6,24.2,N/A,,Overcast,190,2013-03-18 07:53:00
3:25 AM,64.4,55.4,73,29.80,10.0,South,17.3,25.3,N/A,,Overcast,190,2013-03-18 08:25:00
3:40 AM,64.4,55.4,73,29.79,10.0,South,17.3,25.3,N/A,,Overcast,190,2013-03-18 08:40:00
3:53 AM,64.9,55.9,73,29.77,10.0,South,13.8,-,N/A,,Overcast,190,2013-03-18 08:53:00
4:26 AM,64.4,57.2,77,29.78,10.0,SSW,12.7,-,N/A,,Overcast,200,2013-03-18 09:26:00
4:53 AM,64.9,57.0,75,29.78,10.0,SSW,13.8,-,N/A,,Overcast,200,2013-03-18 09:53:00
6:53 AM,64.0,57.9,80,29.79,10.0,South,16.1,25.3,0.00,,Overcast,190,2013-03-18 11:53:00
7:53 AM,63.0,57.9,84,29.80,6.0,SSW,13.8,-,0.01,Rain,Light Rain,200,2013-03-18 12:53:00
8:53 AM,64.0,59.0,84,29.80,7.0,SSW,15.0,23.0,0.00,,Overcast,200,2013-03-18 13:53:00
9:53 AM,64.9,60.1,84,29.78,7.0,SSW,13.8,21.9,N/A,,Overcast,200,2013-03-18 14:53:00
10:44 AM,66.2,59.0,78,29.78,8.0,SSW,17.3,24.2,N/A,,Overcast,210,2013-03-18 15:44:00
10:53 AM,66.0,59.0,78,29.78,8.0,SSW,12.7,23.0,N/A,,Overcast,210,2013-03-18 15:53:00
11:16 AM,66.2,59.0,78,29.79,7.0,SW,13.8,23.0,0.00,Rain-Thunderstorm,Light Rain,220,2013-03-18 16:16:00
11:53 AM,64.9,60.1,84,29.77,3.0,SW,9.2,18.4,N/A,Rain-Thunderstorm,Light Thunderstorms and Rain,230,2013-03-18 16:53:00
12:17 PM,64.4,60.8,88,29.79,5.0,SW,6.9,-,0.00,Rain-Thunderstorm,Light Rain,220,2013-03-18 17:17:00
12:33 PM,64.4,60.8,88,29.78,2.0,WSW,12.7,-,0.00,Rain-Thunderstorm,Light Thunderstorms and Rain,240,2013-03-18 17:33:00
12:43 PM,62.6,55.4,77,29.78,2.0,WSW,8.1,17.3,N/A,Rain-Thunderstorm,Heavy Thunderstorms and Rain,250,2013-03-18 17:43:00
12:53 PM,63.0,57.0,81,29.78,9.0,SW,6.9,-,N/A,Rain-Thunderstorm,Light Thunderstorms and Rain,220,2013-03-18 17:53:00
1:13 PM,64.4,59.0,83,29.77,8.0,South,6.9,-,N/A,Thunderstorm,Overcast,190,2013-03-18 18:13:00
1:53 PM,64.0,57.9,80,29.74,10.0,South,8.1,-,0.24,Thunderstorm,Overcast,180,2013-03-18 18:53:00
2:14 PM,59.0,51.8,77,29.82,2.5,WNW,28.8,55.2,0.06,Rain-Thunderstorm,Heavy Thunderstorms and Rain,300,2013-03-18 19:14:00
2:22 PM,57.2,51.8,82,29.83,2.0,WNW,20.7,41.4,0.13,Rain-Thunderstorm,Heavy Thunderstorms and Rain,300,2013-03-18 19:22:00
2:32 PM,57.2,53.6,88,29.84,5.0,WNW,28.8,36.8,0.15,Rain-Thunderstorm,Thunderstorms and Rain,300,2013-03-18 19:32:00
2:53 PM,57.9,53.1,84,29.85,4.0,West,19.6,25.3,0.22,Rain,Heavy Rain,270,2013-03-18 19:53:00
3:15 PM,57.2,51.8,82,29.78,4.0,South,10.4,-,0.09,Rain-Thunderstorm,Rain,170,2013-03-18 20:15:00
3:30 PM,57.2,51.8,82,29.76,10.0,SSE,6.9,-,0.10,,Mostly Cloudy,160,2013-03-18 20:30:00
3:53 PM,57.9,53.1,84,29.76,10.0,South,9.2,-,0.10,,Clear,170,2013-03-18 20:53:00
4:53 PM,59.0,53.1,81,29.75,10.0,South,4.6,-,N/A,,Clear,180,2013-03-18 21:53:00
5:53 PM,61.0,53.1,75,29.76,10.0,Calm,Calm,-,N/A,,Clear,0,2013-03-18 22:53:00
6:53 PM,60.1,53.1,78,29.81,10.0,NW,10.4,17.3,N/A,,Overcast,320,2013-03-18 23:53:00
7:27 PM,57.2,50.0,77,29.84,10.0,NW,12.7,-,N/A,,Mostly Cloudy,320,2013-03-19 00:27:00
7:36 PM,57.2,50.0,77,29.85,10.0,NW,9.2,-,N/A,,Mostly Cloudy,310,2013-03-19 00:36:00
7:53 PM,57.0,50.0,77,29.86,10.0,NW,10.4,-,N/A,,Overcast,310,2013-03-19 00:53:00
8:53 PM,55.0,46.0,72,29.89,10.0,NNW,8.1,-,N/A,,Overcast,340,2013-03-19 01:53:00
9:53 PM,53.1,44.1,71,29.93,10.0,NNW,8.1,-,N/A,,Mostly Cloudy,330,2013-03-19 02:53:00
10:03 PM,51.8,42.8,71,29.94,10.0,NNW,8.1,-,N/A,,Scattered Clouds,330,2013-03-19 03:03:00
10:53 PM,50.0,43.0,77,29.99,10.0,NNW,5.8,-,N/A,,Clear,340,2013-03-19 03:53:00
11:53 PM,48.9,42.1,77,30.00,10.0,NNW,4.6,-,N/A,,Clear,330,2013-03-19 04:53:00